TimeEDT,TemperatureF,Dew PointF,Humidity,Sea Level PressureIn,VisibilityMPH,Wind Direction,Wind SpeedMPH,Gust SpeedMPH,PrecipitationIn,Events,Conditions,WindDirDegrees,DateUTC
12:06 AM,44.4,23.7,44,29.94,10.0,North,11.5,18.4,N/A,,Clear,350,2013-03-20 04:06:00
12:26 AM,42.1,26.1,53,29.95,10.0,North,8.1,-,N/A,,Clear,360,2013-03-20 04:26:00
12:47 AM,40.8,26.1,56,29.96,10.0,North,5.8,-,N/A,,Clear,360,2013-03-20 04:47:00
1:07 AM,38.8,25.9,60,29.97,10.0,NW,3.5,-,N/A,,Clear,320,2013-03-20 05:07:00
1:27 AM,39.0,27.1,62,29.98,10.0,North,4.6,-,N/A,,Clear,350,2013-03-20 05:27:00
1:47 AM,38.5,26.8,63,29.98,10.0,North,3.5,-,N/A,,Clear,10,2013-03-20 05:47:00
2:07 AM,38.5,26.6,62,29.99,10.0,NNE,4.6,-,N/A,,Clear,20,2013-03-20 06:07:00
2:27 AM,37.6,26.4,64,30.00,10.0,North,3.5,-,N/A,,Clear,360,2013-03-20 06:27:00
2:47 AM,36.0,25.7,66,30.01,10.0,NW,3.5,-,N/A,,Clear,310,2013-03-20 06:47:00
3:07 AM,37.0,26.2,65,30.01,10.0,North,8.1,-,N/A,,Clear,360,2013-03-20 07:07:00
3:27 AM,37.4,24.8,60,30.00,10.0,NNW,8.1,-,N/A,,Clear,340,2013-03-20 07:27:00
3:47 AM,36.5,24.3,61,30.00,10.0,NNW,9.2,-,N/A,,Clear,330,2013-03-20 07:47:00
4:07 AM,38.5,20.8,49,29.99,10.0,NNW,10.4,20.7,N/A,,Clear,330,2013-03-20 08:07:00
4:27 AM,38.3,20.5,49,29.99,10.0,NNW,10.4,-,N/A,,Clear,340,2013-03-20 08:27:00
4:47 AM,37.6,20.1,49,29.98,10.0,NNW,9.2,-,N/A,,Clear,340,2013-03-20 08:47:00
5:07 AM,37.4,20.1,50,29.99,10.0,NNW,12.7,18.4,N/A,,Clear,330,2013-03-20 09:07:00
5:27 AM,36.5,20.7,53,29.99,10.0,NNW,9.2,-,N/A,,Clear,340,2013-03-20 09:27:00
5:47 AM,36.0,20.5,53,30.00,10.0,NW,8.1,-,N/A,,Clear,320,2013-03-20 09:47:00
5:53 AM,37.4,19.4,48,30.00,10.0,NW,12.7,-,N/A,,Clear,320,2013-03-20 09:53:00
6:07 AM,36.5,20.5,52,30.00,10.0,NNW,11.5,-,N/A,,Clear,330,2013-03-20 10:07:00
6:27 AM,35.8,20.3,53,30.01,10.0,NNW,8.1,-,N/A,,Clear,330,2013-03-20 10:27:00
6:47 AM,36.9,19.9,50,30.01,10.0,NW,10.4,-,N/A,,Clear,320,2013-03-20 10:47:00
6:53 AM,37.4,19.4,48,30.08,10.0,NW,9.2,-,N/A,,Clear,310,2013-03-20 10:53:00
7:07 AM,36.3,20.1,52,30.02,10.0,NW,8.1,-,N/A,,Clear,320,2013-03-20 11:07:00
7:27 AM,36.5,20.7,53,30.02,10.0,NW,8.1,-,N/A,,Clear,320,2013-03-20 11:27:00
7:41 AM,37.8,20.5,50,30.02,10.0,NW,9.2,-,N/A,,Clear,320,2013-03-20 11:41:00
7:53 AM,39.2,19.4,45,30.03,10.0,NW,9.2,-,N/A,,Clear,310,2013-03-20 11:53:00
8:55 AM,41.0,19.4,42,30.03,10.0,NW,15.0,23.0,N/A,,Clear,310,2013-03-20 12:55:00
9:53 AM,44.6,21.2,39,30.04,10.0,WNW,13.8,20.7,N/A,,Clear,300,2013-03-20 13:53:00
10:48 AM,44.6,19.4,37,30.04,10.0,WNW,10.4,20.7,N/A,,Clear,300,2013-03-20 14:48:00
11:52 AM,46.4,19.4,34,30.02,10.0,WNW,12.7,19.6,N/A,,Clear,300,2013-03-20 15:52:00
12:50 PM,48.2,21.2,34,30.00,10.0,WSW,13.8,21.9,N/A,,Clear,250,2013-03-20 16:50:00
1:55 PM,51.8,23.0,33,29.97,10.0,West,11.5,19.6,N/A,,Clear,260,2013-03-20 17:55:00
2:53 PM,50.0,21.2,32,29.92,10.0,WSW,11.5,20.7,N/A,,Scattered Clouds,240,2013-03-20 18:53:00
3:53 PM,51.8,23.0,33,29.89,10.0,SSW,11.5,17.3,N/A,,Scattered Clouds,210,2013-03-20 19:53:00
4:53 PM,50.0,21.2,32,29.87,10.0,SW,13.8,19.6,N/A,,Mostly Cloudy,220,2013-03-20 20:53:00
5:53 PM,50.0,23.0,35,29.85,10.0,SW,9.2,16.1,N/A,,Mostly Cloudy,230,2013-03-20 21:53:00
6:53 PM,46.4,26.6,46,29.84,10.0,South,11.5,17.3,N/A,,Mostly Cloudy,190,2013-03-20 22:53:00
7:53 PM,44.6,24.8,46,29.83,10.0,South,9.2,-,N/A,,Mostly Cloudy,190,2013-03-20 23:53:00
8:53 PM,44.6,26.6,49,29.84,10.0,South,5.8,-,N/A,,Mostly Cloudy,190,2013-03-21 00:53:00
10:49 PM,43.5,33.3,67,29.83,10.0,South,9.2,-,N/A,,Clear,180,2013-03-21 02:49:00
11:09 PM,43.3,33.8,69,29.82,10.0,ESE,4.6,-,N/A,,Clear,120,2013-03-21 03:09:00
11:29 PM,42.1,33.4,71,29.81,10.0,SE,5.8,-,N/A,,Clear,140,2013-03-21 03:29:00
11:49 PM,42.3,34.7,75,29.81,10.0,SE,3.5,-,N/A,,Clear,140,2013-03-21 03:49:00